Temperature
25 24 24 22 21 22 24 28 29 29 29 29 29 28 27 26 25 23 23 23 23 23 22 22 22 22 22 21 21 21 20 20 21 21 21 21 21 21 21 20 20 20 20 20 20 20 20 20 20
25 25 24 23 22 22 24 27 29 30 30 29 29 28 27 26 24 23 23 23 24 24 23 22 22 22 22 21 21 21 20 20 20 20 21 21 20 20 20 20 20 20 20 20 20 20 20 20 20
25 25 25 22 22 22 24 27 29 30 31 30 29 28 27 26 24 24 24 24 24 24 23 23 22 22 22 21 21 21 20 20 20 20 20 20 20 20 20 20 20 20 20 20 20 20 20 20 20
25 25 24 22 23 24 25 27 29 30 31 29 28 26 27 26 25 25 24 24 24 24 23 23 22 22 22 21 21 21 20 20 20 20 20 20 20 20 20 20 20 20 20 20 20 20 20 20 20
25 25 22 22 24 26 27 28 29 30 30 28 27 26 26 26 26 25 24 24 24 24 24 23 23 22 22 21 21 21 20 20 20 20 20 20 20 20 20 20 20 20 20 20 20 20 20 20 20
25 23 23 23 26 28 28 29 30 30 29 28 27 26 25 25 26 25 24 24 24 24 24 23 23 22 22 22 21 21 21 21 21 20 20 20 20 20 20 20 20 20 20 20 20 20 20 20 20
26 22 24 25 27 29 30 30 30 29 29 29 27 25 25 24 25 25 24 24 24 24 24 24 23 23 22 22 22 21 21 21 21 21 20 20 20 20 20 20 20 20 20 20 20 20 20 20 20
27 22 24 25 28 29 31 32 31 31 30 29 29 25 25 25 25 24 24 24 24 24 24 24 24 23 23 22 22 22 21 21 21 21 21 20 20 20 20 20 20 20 20 20 20 20 20 19 19
27 22 23 26 28 28 31 31 32 32 31 30 29 29 28 26 25 24 23 23 23 23 23 23 23 23 23 22 22 22 21 21 21 21 21 20 20 20 20 20 19 19 19 19 19 19 19 19 19
26 22 25 27 29 28 30 31 31 30 29 28 28 28 27 26 25 24 24 23 23 23 23 23 23 23 23 22 22 22 22 21 21 21 21 21 20 20 20 20 19 19 19 19 19 19 19 19 19
26 25 26 28 30 30 30 31 31 29 27 27 27 27 26 26 26 25 25 25 24 24 23 23 23 23 23 22 22 22 22 21 21 21 21 20 20 20 20 20 19 19 19 19 19 19 19 19 19
27 27 28 29 30 30 30 31 31 30 29 29 29 28 27 26 26 26 25 25 25 24 23 23 22 22 22 22 22 22 21 21 20 21 21 20 20 20 20 19 19 19 19 19 19 19 19 19 19
26 27 29 30 30 30 30 30 31 31 30 28 28 27 27 27 26 26 25 25 25 24 23 23 22 22 22 21 21 21 21 20 20 20 20 20 20 20 20 19 19 19 19 18 19 19 19 19 19
27 28 29 30 30 30 29 29 29 30 29 27 26 26 26 26 26 25 25 25 24 24 23 23 22 22 21 21 21 20 20 20 20 19 20 20 20 20 20 20 19 19 19 19 19 19 19 19 18
27 26 26 27 28 29 29 27 28 30 28 26 25 25 25 25 25 25 25 24 24 23 23 22 22 21 21 21 20 20 20 19 19 19 19 19 19 19 19 19 19 19 19 19 19 19 19 18 18
25 25 24 25 27 28 27 26 27 29 28 26 25 24 24 24 24 24 24 24 23 23 22 22 21 20 20 20 20 19 19 19 19 19 19 19 19 19 19 19 19 19 19 19 19 19 19 18 18
23 23 24 25 26 27 26 26 27 28 27 25 25 24 24 24 24 23 23 23 22 22 21 21 20 20 19 19 19 19 19 19 19 19 19 19 19 19 19 19 19 19 18 18 19 19 18 18 18
23 24 25 25 26 26 26 26 27 28 27 25 24 24 23 23 23 23 23 22 22 21 21 21 20 20 20 19 19 19 19 19 19 19 19 19 19 19 19 19 19 18 18 18 18 19 19 18 18
25 25 25 26 26 25 25 25 26 27 26 25 23 22 22 22 22 22 22 22 21 21 21 21 21 20 20 20 19 19 19 19 19 19 19 19 19 19 19 19 19 18 18 18 19 19 18 18 18
26 25 24 25 26 26 25 24 24 24 25 24 23 22 22 22 22 22 22 22 21 21 21 21 21 21 20 20 19 19 19 19 18 19 19 18 18 18 18 18 18 18 18 18 18 18 18 18 18
25 25 24 24 24 24 24 22 22 22 23 23 22 22 22 22 22 22 22 22 22 21 21 21 21 21 20 20 19 18 18 18 18 18 18 18 18 18 17 17 17 17 17 17 18 18 18 18 18
24 25 25 24 22 20 22 20 21 21 21 21 21 22 22 22 22 22 22 22 22 22 22 21 21 21 20 19 18 18 17 17 17 17 17 17 17 17 17 17 17 17 17 17 17 17 17 17 17
26 26 25 24 22 21 21 20 20 20 21 20 21 22 23 23 23 23 23 23 23 22 22 21 21 20 20 19 18 17 17 17 16 16 16 16 17 16 16 16 16 16 16 16 16 16 16 16 16
26 24 22 20 18 19 21 21 19 19 20 20 21 22 23 23 24 24 23 23 22 22 21 21 21 20 19 18 17 17 16 16 16 16 16 16 16 16 16 16 16 16 16 16 16 16 16 16 16
24 19 18 19 18 19 20 20 19 20 21 21 21 22 23 24 24 24 23 23 22 22 21 21 20 20 19 18 17 16 16 16 16 15 15 15 15 15 15 15 15 15 16 16 16 15 16 16 15
25 20 18 19 18 18 19 20 20 21 22 23 23 23 24 24 24 24 24 23 22 22 21 21 20 19 18 17 17 16 16 15 15 15 14 14 14 14 14 14 15 15 15 15 15 15 15 15 15
24 22 19 17 19 19 19 21 21 21 21 22 23 23 24 24 24 24 23 23 22 22 21 21 20 19 18 17 16 16 15 15 15 14 14 13 13 13 13 14 14 14 14 15 15 14 14 14 14
24 22 18 18 19 18 19 20 19 21 21 21 21 23 24 24 23 23 23 23 22 22 21 20 20 19 18 17 16 16 15 15 14 14 13 13 12 12 13 13 13 14 14 14 14 14 14 14 13
23 23 20 17 16 17 17 18 20 20 20 20 21 22 23 23 23 23 23 22 22 21 21 20 20 19 18 17 16 15 15 14 14 13 13 12 12 12 12 12 13 13 13 14 14 14 13 13 13
23 22 19 18 18 17 16 18 20 19 19 19 20 21 21 21 21 22 22 22 22 21 21 20 20 19 18 17 16 15 14 14 13 13 12 12 12 12 12 12 12 13 13 13 13 13 13 13 13
Wind_Speed
6 4 3 1 3 5 4 2 6 9 7 7 11 12 8 5 4 5 4 17 21 19 19 23 24 23 22 20 18 16 15 14 13 13 13 13 13 12 12 12 11 11 10 9 9 9 9 9 9
4 2 1 1 5 4 4 2 6 6 8 10 10 9 7 7 9 10 7 16 22 19 19 21 24 24 22 20 18 17 15 14 13 13 12 12 11 11 10 10 9 9 9 9 8 8 8 7 7
4 1 3 4 3 1 5 4 0 3 9 8 6 6 5 6 11 8 11 20 18 15 18 21 25 23 22 21 19 18 17 15 14 13 12 11 10 10 9 9 8 8 8 8 7 7 7 7 7
1 4 5 5 0 5 5 7 6 1 6 8 8 6 4 3 8 13 21 21 19 15 17 21 24 23 22 21 20 18 17 16 15 14 13 11 11 10 10 9 9 8 8 8 7 7 7 7 7
3 4 4 2 3 6 7 8 6 1 4 7 10 6 4 5 19 24 22 21 20 15 15 20 23 22 22 21 20 19 17 16 15 14 13 12 11 11 11 11 10 10 9 9 9 8 8 8 9
3 4 3 1 5 7 7 8 3 3 8 9 9 7 4 12 20 21 21 19 19 19 15 19 22 22 21 21 20 20 18 17 16 15 14 13 12 12 12 12 12 12 11 11 11 11 11 11 11
3 2 2 4 3 5 5 6 6 6 8 9 11 8 6 13 18 20 18 17 16 17 15 14 18 20 21 21 21 20 19 18 17 16 15 14 14 14 14 14 14 14 14 13 14 14 14 14 14
4 3 4 5 5 3 4 1 3 7 7 10 10 10 9 13 18 18 15 14 14 13 13 11 14 16 17 18 20 20 20 19 18 17 16 16 16 15 15 15 16 16 16 17 17 17 17 17 16
2 4 2 4 5 7 8 6 6 1 5 5 5 7 12 17 19 18 14 12 11 12 10 10 10 11 13 14 17 18 19 19 18 17 18 17 14 15 15 16 18 19 19 20 20 20 19 18 18
4 3 6 5 4 5 8 7 7 6 8 7 9 8 14 16 19 19 19 18 16 15 13 12 12 10 11 13 13 13 14 14 15 14 15 15 14 15 15 17 20 21 22 23 23 22 20 18 15
4 6 7 7 5 5 7 9 5 6 5 10 15 16 15 15 15 16 18 19 18 17 16 14 14 11 11 8 9 10 11 11 13 15 16 14 13 13 14 12 15 19 21 19 19 19 17 15 13
5 9 8 7 6 6 6 7 6 3 7 12 18 19 16 16 15 13 14 16 16 16 16 15 14 13 12 9 8 9 8 8 10 15 18 13 8 8 9 9 11 12 14 13 13 10 13 14 15
7 8 8 6 8 6 6 7 7 2 5 11 13 13 12 12 10 8 9 12 14 15 15 16 15 14 12 10 7 8 8 9 12 14 17 17 9 10 9 8 9 11 12 11 9 9 9 10 11
6 6 7 7 8 5 5 8 6 3 9 13 13 9 7 7 7 6 7 8 10 11 12 14 15 14 11 10 9 8 7 9 10 11 15 18 14 10 11 11 9 8 11 12 10 12 12 11 11
7 8 11 9 7 5 4 8 6 3 11 14 14 12 10 9 10 9 7 6 6 6 8 11 13 12 11 9 9 6 6 7 5 8 14 16 16 12 11 10 10 9 11 12 9 10 9 10 10
7 6 6 10 6 7 5 5 4 5 14 13 13 13 12 10 11 10 10 9 7 6 5 5 6 6 6 5 5 4 3 3 4 5 7 10 13 14 9 10 10 8 7 7 8 7 7 8 8
6 4 8 11 7 4 7 5 3 5 13 11 10 11 12 10 10 9 9 9 8 7 6 6 5 3 1 2 3 4 4 5 4 6 5 7 8 10 8 9 9 8 7 8 8 6 5 6 7
6 6 6 7 9 7 7 2 1 3 8 10 9 9 10 10 9 8 9 9 8 8 7 6 5 4 2 2 2 3 5 5 5 5 6 9 9 10 7 8 10 9 8 8 6 7 6 5 6
5 3 4 5 8 9 8 6 6 4 2 7 9 9 10 9 7 7 8 8 8 7 7 5 4 3 2 0 1 3 4 5 5 6 7 8 8 9 8 8 9 9 9 10 10 7 8 7 5
4 5 4 4 7 6 6 6 7 7 5 5 10 10 10 8 6 6 6 6 6 6 5 5 5 3 3 2 2 3 4 5 5 6 7 8 8 8 9 8 8 9 9 10 10 8 6 6 6
6 2 3 3 4 5 4 7 7 7 6 7 8 8 9 10 9 8 7 6 6 6 7 6 7 5 4 3 1 2 3 4 5 6 7 8 7 7 8 9 9 8 8 9 10 10 9 8 7
3 2 5 7 7 5 4 4 8 3 4 5 7 7 8 8 8 8 8 8 8 8 8 8 7 5 3 2 1 1 3 6 7 7 7 9 9 9 9 9 9 9 8 9 10 9 8 8 8
1 2 5 5 4 5 4 0 7 1 3 3 4 5 7 8 10 10 10 10 10 9 8 7 6 4 2 2 1 1 4 5 7 8 10 10 9 9 9 9 9 9 8 9 10 9 8 8 8
3 7 9 7 5 2 5 2 6 4 5 4 4 6 8 9 10 10 10 9 8 7 6 6 6 4 2 2 2 2 4 7 9 10 10 9 8 8 9 9 9 9 8 9 10 9 9 8 8
7 7 6 7 6 5 4 1 6 6 6 8 8 9 10 10 9 9 10 10 8 7 6 6 6 4 3 2 2 1 3 5 6 8 8 9 9 9 10 10 8 8 8 9 8 8 7 7 6
2 8 6 3 4 6 4 1 5 5 7 9 9 10 10 9 8 9 10 8 8 8 8 7 7 5 4 3 2 0 2 2 4 5 7 8 8 9 11 11 10 9 8 7 6 5 5 5 5
2 2 8 7 2 3 4 2 5 5 5 8 9 8 8 8 8 8 7 8 9 9 9 9 8 6 6 5 3 1 1 2 4 5 5 6 7 9 10 10 9 8 6 6 6 5 5 5 4
4 6 6 4 1 3 6 4 5 8 8 8 9 9 8 6 4 5 6 8 8 9 8 8 8 8 7 6 5 3 2 1 2 4 6 7 8 8 10 10 9 7 5 3 4 4 5 5 4
3 1 4 5 6 5 5 7 8 9 9 7 6 4 2 2 2 3 5 7 8 8 8 8 8 7 7 7 5 4 3 2 2 3 5 6 6 8 9 9 9 7 5 2 1 3 5 5 4
3 3 6 4 6 6 5 8 9 3 5 5 6 6 6 6 6 5 4 5 7 8 8 9 9 8 8 8 7 6 5 3 2 3 5 6 6 7 8 8 8 7 5 3 2 4 5 6 6
Wind_Direction
308 253 179 144 60 39 354 354 95 76 61 72 84 86 85 68 117 144 124 142 138 145 152 153 153 150 146 143 141 140 138 136 134 132 130 130 130 130 131 131 132 134 134 132 130 127 125 123 121
312 294 145 34 63 32 319 327 86 112 130 112 88 88 80 78 95 114 121 142 140 145 149 154 156 153 149 147 146 146 147 147 148 147 147 146 146 146 147 146 146 148 149 149 149 147 145 144 144
279 303 60 49 45 200 270 281 140 120 133 114 84 62 79 104 117 127 143 141 138 143 148 155 157 157 154 152 153 154 156 157 159 161 162 163 163 164 165 165 166 167 169 170 171 170 169 170 173
17 45 47 63 3 254 235 266 291 9 93 91 96 68 45 85 119 136 141 143 142 145 149 155 158 159 159 158 159 161 163 165 168 171 174 177 180 182 183 183 185 188 189 192 193 193 194 196 201
84 74 67 98 233 256 252 249 256 60 88 95 94 89 48 37 120 136 145 150 148 149 154 156 158 161 162 162 163 165 168 172 175 179 183 187 191 195 197 197 199 202 204 206 208 210 212 215 221
35 64 67 211 220 229 245 238 201 138 111 115 107 108 79 122 131 145 151 156 154 153 156 159 161 163 164 165 168 170 174 179 183 187 191 196 201 206 206 205 207 211 215 217 219 222 223 223 226
120 83 267 269 245 219 230 210 183 149 139 147 134 112 123 143 150 152 154 154 154 155 158 162 165 167 169 170 173 177 181 185 190 194 198 202 207 210 211 211 212 217 222 226 228 229 228 227 228
150 90 328 315 351 335 325 34 203 157 148 135 131 135 159 169 154 154 150 149 150 157 163 165 168 170 172 175 180 183 187 191 195 200 204 207 211 213 215 216 218 223 226 230 232 232 232 230 230
91 70 293 283 330 320 333 2 337 58 107 103 111 143 159 152 145 148 147 147 153 161 169 170 170 172 173 177 187 191 196 200 202 207 211 214 218 220 222 223 223 227 230 232 234 234 234 234 236
104 156 234 235 277 300 329 355 354 51 78 87 91 103 135 145 149 153 158 164 168 171 177 178 178 176 174 185 191 196 203 208 209 212 217 218 219 223 227 231 233 233 233 235 236 236 237 238 239
193 214 245 270 285 312 329 334 9 89 116 150 145 147 152 155 160 164 167 172 176 177 178 181 182 181 182 192 187 196 208 213 217 219 221 223 226 231 235 236 239 239 238 237 239 237 235 234 236
254 265 269 276 301 319 306 315 339 109 179 172 157 155 159 166 173 175 172 174 175 176 183 181 182 184 190 193 192 193 204 212 218 223 224 222 226 230 233 236 235 232 232 230 231 232 232 234 237
265 269 284 298 322 307 311 305 302 296 141 143 147 150 163 175 177 180 172 167 170 179 184 182 182 187 191 194 197 197 205 213 218 221 224 222 222 228 231 233 233 231 226 223 223 226 231 235 239
276 291 303 304 309 303 311 307 320 294 124 126 127 129 141 157 146 135 143 154 163 172 176 177 184 189 191 193 197 202 204 213 222 226 228 225 225 226 230 234 232 227 223 221 219 221 227 232 235
320 326 322 303 289 276 358 323 299 229 119 120 122 116 106 103 101 100 108 119 130 142 152 165 182 189 194 200 202 203 208 214 219 226 231 231 231 232 232 236 237 231 222 217 219 222 226 231 233
354 2 314 287 267 258 155 239 289 119 118 122 129 125 112 100 97 97 94 90 88 93 108 137 166 189 210 223 237 248 254 260 253 252 250 247 241 239 238 241 245 240 226 216 214 215 217 225 226
2 315 287 299 297 245 149 190 221 120 119 130 134 128 118 106 96 95 96 99 94 94 96 93 80 88 19 306 295 293 290 285 279 283 280 280 277 260 239 241 241 236 230 225 222 215 210 224 230
268 282 307 332 341 49 81 104 13 87 127 142 142 131 121 115 115 110 102 101 98 98 99 100 96 94 72 10 322 301 294 284 278 274 268 268 265 261 244 239 235 227 226 229 224 219 213 217 221
244 305 340 357 8 44 28 4 340 347 83 149 150 141 131 127 128 116 110 107 103 100 102 106 111 119 117 81 298 295 291 290 290 282 273 273 270 265 255 250 241 230 228 229 224 219 223 228 211
344 359 1 0 7 36 6 340 332 339 325 185 161 150 140 134 132 128 123 119 117 123 125 136 150 168 178 199 221 242 266 280 278 284 290 283 279 274 274 257 250 241 235 233 226 218 219 226 202
350 41 48 2 3 23 28 341 326 335 33 86 120 139 148 158 163 161 153 150 149 158 165 170 184 189 193 197 214 305 312 308 304 302 296 291 288 285 280 270 260 251 237 236 234 224 221 232 226
323 23 43 14 17 328 43 316 300 324 60 97 128 147 170 173 169 172 173 175 181 189 182 177 179 173 172 148 106 308 296 294 290 291 290 292 290 287 284 278 268 255 242 238 240 234 226 226 235
246 42 23 343 332 330 339 256 287 351 153 178 168 174 189 187 183 188 189 193 195 188 180 172 154 145 138 112 86 333 305 295 301 304 301 299 296 290 286 279 271 259 247 239 237 233 224 222 228
51 31 4 20 57 1 272 205 284 257 208 191 195 202 209 207 201 204 205 200 196 186 169 152 140 137 122 90 56 14 326 319 320 319 314 309 304 299 293 286 274 262 251 241 235 228 221 220 223
64 68 22 359 6 275 283 104 270 266 186 183 196 211 222 223 215 212 208 203 197 183 168 157 148 147 137 113 75 16 339 328 320 319 319 318 314 309 302 295 281 270 255 243 229 217 213 208 209
156 129 148 207 252 285 333 159 259 260 189 198 206 215 225 233 228 221 214 203 193 185 174 169 163 166 169 158 152 86 347 327 314 316 319 318 314 309 305 301 289 277 262 243 217 202 196 190 193
160 177 168 147 275 309 296 262 275 260 224 213 214 218 227 232 227 220 208 192 187 182 181 181 175 181 186 182 171 163 332 327 317 320 321 319 319 318 319 315 306 294 273 238 203 192 183 173 177
164 156 89 96 176 284 292 284 242 242 244 237 221 215 221 224 218 205 195 195 191 187 189 188 184 188 191 187 181 176 198 257 302 318 320 319 321 324 328 330 326 319 305 255 198 176 169 164 172
299 195 137 145 168 178 263 272 245 232 231 231 238 240 264 278 254 237 226 210 200 193 190 193 194 192 194 194 189 184 199 223 277 301 304 310 316 324 330 331 333 331 328 333 163 155 152 155 145
203 194 150 164 239 198 210 273 320 6 29 47 45 33 18 6 349 317 277 238 212 204 202 202 201 200 202 198 194 194 200 206 236 281 298 308 317 325 332 337 344 349 356 21 75 110 120 127 121
Height
1516 1514 1512 1512 1513 1520 1520 1505 1494 1493 1493 1494 1494 1496 1502 1505 1510 1518 1516 1517 1521 1524 1528 1531 1533 1535 1537 1539 1541 1543 1544 1545 1547 1548 1548 1549 1550 1550 1550 1551 1551 1552 1552 1553 1553 1553 1554 1554 1555
1516 1514 1513 1512 1519 1535 1525 1504 1497 1493 1494 1494 1497 1499 1502 1506 1507 1510 1513 1519 1522 1524 1528 1531 1533 1536 1538 1540 1541 1543 1544 1545 1547 1548 1549 1549 1550 1550 1550 1550 1551 1551 1552 1552 1553 1553 1553 1554 1554
1516 1514 1515 1515 1524 1533 1525 1505 1496 1493 1493 1494 1499 1502 1504 1507 1508 1510 1514 1518 1522 1525 1528 1531 1533 1536 1538 1540 1541 1543 1544 1545 1546 1547 1548 1549 1549 1550 1550 1550 1550 1551 1551 1551 1552 1552 1553 1553 1553
1516 1517 1517 1524 1527 1517 1512 1503 1498 1496 1495 1496 1499 1505 1507 1509 1509 1512 1515 1520 1522 1525 1528 1530 1533 1535 1537 1539 1541 1542 1543 1545 1546 1547 1547 1548 1548 1549 1549 1549 1549 1550 1550 1550 1551 1551 1551 1552 1552
1515 1517 1524 1533 1526 1510 1502 1499 1497 1496 1497 1500 1500 1507 1509 1510 1511 1513 1517 1520 1522 1525 1527 1530 1532 1534 1537 1539 1540 1542 1543 1544 1545 1546 1546 1547 1547 1547 1548 1548 1548 1549 1549 1549 1550 1550 1550 1551 1551
1516 1517 1530 1535 1522 1507 1500 1496 1495 1495 1497 1500 1502 1507 1512 1511 1512 1515 1518 1521 1523 1524 1526 1529 1531 1533 1535 1537 1539 1540 1542 1542 1543 1544 1545 1545 1546 1546 1546 1546 1547 1548 1548 1548 1548 1549 1549 1549 1549
1517 1521 1527 1523 1516 1507 1499 1496 1494 1493 1494 1497 1499 1506 1512 1513 1513 1515 1519 1521 1523 1525 1526 1528 1530 1532 1534 1536 1537 1538 1540 1541 1542 1543 1543 1544 1544 1544 1544 1545 1545 1546 1546 1547 1547 1547 1547 1547 1547
1516 1520 1523 1521 1513 1505 1495 1493 1493 1491 1492 1495 1497 1501 1508 1512 1513 1516 1519 1521 1523 1525 1526 1528 1530 1531 1533 1534 1536 1537 1538 1539 1540 1541 1541 1542 1542 1542 1542 1543 1543 1544 1544 1545 1545 1545 1545 1545 1545
1515 1524 1529 1519 1513 1505 1496 1494 1493 1491 1492 1494 1495 1497 1501 1508 1512 1515 1517 1519 1521 1523 1525 1527 1529 1530 1532 1533 1534 1536 1537 1538 1539 1539 1540 1540 1540 1540 1541 1541 1541 1541 1541 1542 1542 1542 1542 1542 1542
1513 1526 1519 1509 1506 1503 1497 1495 1495 1494 1494 1496 1497 1499 1503 1506 1509 1511 1512 1514 1517 1520 1523 1525 1527 1529 1530 1532 1533 1534 1535 1536 1537 1538 1538 1538 1538 1538 1538 1538 1538 1538 1538 1539 1539 1538 1538 1538 1538
1510 1514 1507 1504 1503 1501 1497 1495 1495 1495 1498 1496 1496 1499 1502 1505 1507 1509 1510 1512 1515 1518 1521 1523 1526 1528 1529 1530 1532 1533 1534 1534 1535 1535 1536 1536 1536 1536 1535 1535 1535 1535 1535 1535 1535 1535 1534 1534 1534
1509 1505 1503 1501 1500 1499 1497 1495 1494 1494 1496 1495 1495 1497 1501 1503 1506 1508 1510 1512 1515 1517 1519 1522 1524 1526 1528 1529 1530 1531 1532 1532 1533 1533 1534 1534 1533 1533 1533 1532 1532 1532 1531 1531 1532 1532 1532 1531 1531
1506 1503 1500 1498 1497 1497 1496 1495 1494 1493 1495 1496 1498 1500 1501 1503 1506 1508 1510 1512 1514 1516 1518 1520 1522 1524 1526 1527 1528 1529 1529 1530 1531 1531 1532 1531 1531 1530 1530 1529 1528 1528 1528 1528 1528 1529 1529 1528 1528
1504 1501 1497 1495 1495 1495 1496 1495 1495 1494 1495 1497 1499 1502 1503 1504 1506 1509 1511 1512 1514 1516 1517 1518 1520 1522 1524 1524 1525 1526 1526 1527 1527 1528 1528 1528 1527 1527 1527 1526 1525 1524 1524 1524 1524 1524 1525 1525 1525
1503 1501 1499 1494 1493 1493 1496 1499 1494 1493 1495 1498 1500 1502 1504 1505 1507 1508 1510 1513 1515 1516 1517 1518 1520 1521 1521 1522 1523 1524 1524 1524 1524 1524 1524 1524 1523 1523 1522 1522 1521 1521 1520 1519 1519 1520 1520 1519 1519
1505 1509 1513 1497 1492 1490 1500 1509 1496 1493 1494 1498 1501 1502 1503 1505 1506 1508 1510 1513 1515 1516 1518 1519 1519 1521 1521 1522 1522 1522 1522 1522 1521 1521 1520 1519 1519 1517 1516 1515 1515 1515 1516 1515 1514 1514 1514 1514 1514
1517 1523 1517 1502 1489 1487 1496 1504 1496 1494 1494 1498 1500 1501 1502 1504 1507 1509 1511 1513 1514 1516 1517 1518 1519 1520 1520 1520 1519 1518 1518 1517 1516 1516 1515 1515 1514 1512 1511 1509 1508 1508 1509 1508 1508 1508 1508 1509 1509
1526 1521 1516 1509 1496 1492 1498 1500 1495 1495 1495 1498 1500 1501 1502 1503 1506 1508 1510 1511 1513 1515 1516 1517 1517 1518 1518 1517 1516 1514 1513 1512 1512 1511 1510 1509 1508 1507 1505 1503 1502 1502 1502 1502 1502 1502 1502 1502 1502
1512 1513 1515 1508 1498 1500 1504 1502 1497 1495 1496 1498 1500 1501 1502 1503 1506 1507 1508 1510 1512 1514 1515 1516 1516 1516 1515 1514 1512 1510 1508 1507 1505 1505 1503 1502 1501 1500 1498 1497 1496 1496 1495 1495 1495 1495 1495 1495 1496
1507 1514 1515 1508 1501 1502 1506 1505 1500 1497 1496 1496 1498 1500 1501 1503 1505 1506 1508 1509 1511 1512 1513 1513 1513 1513 1512 1511 1509 1507 1504 1502 1500 1498 1497 1495 1494 1492 1491 1489 1488 1488 1487 1487 1487 1488 1487 1487 1488
1509 1514 1514 1513 1507 1505 1508 1515 1508 1501 1496 1496 1499 1501 1502 1503 1504 1505 1507 1508 1509 1510 1510 1510 1509 1508 1508 1506 1504 1502 1500 1497 1494 1492 1489 1488 1486 1484 1483 1481 1480 1479 1479 1479 1479 1479 1479 1479 1480
1515 1506 1505 1507 1516 1524 1517 1534 1514 1505 1502 1500 1500 1501 1502 1503 1503 1504 1505 1506 1507 1507 1506 1506 1505 1504 1503 1502 1500 1497 1494 1491 1488 1485 1482 1480 1478 1477 1475 1474 1472 1471 1471 1470 1470 1471 1471 1471 1471
1506 1501 1503 1506 1514 1523 1520 1529 1522 1507 1507 1504 1503 1502 1503 1502 1502 1502 1502 1503 1503 1503 1503 1502 1502 1501 1500 1498 1495 1493 1490 1486 1483 1479 1476 1473 1470 1469 1467 1465 1464 1463 1462 1462 1462 1462 1462 1463 1463
1500 1505 1509 1516 1525 1538 1523 1528 1529 1514 1507 1505 1503 1502 1501 1500 1500 1499 1499 1500 1500 1500 1500 1500 1499 1498 1496 1494 1492 1489 1485 1482 1478 1474 1470 1466 1463 1461 1459 1457 1456 1454 1453 1453 1453 1454 1454 1454 1455
1506 1526 1545 1545 1550 1544 1523 1526 1526 1506 1500 1500 1499 1498 1497 1497 1497 1497 1497 1497 1497 1497 1497 1497 1496 1495 1493 1490 1488 1485 1482 1478 1474 1470 1466 1462 1458 1455 1452 1450 1447 1446 1445 1445 1445 1445 1446 1447 1447
1507 1522 1547 1555 1556 1545 1528 1526 1518 1500 1496 1495 1494 1494 1494 1494 1494 1494 1494 1494 1494 1495 1494 1494 1493 1491 1489 1487 1484 1482 1478 1475 1471 1468 1464 1459 1455 1451 1447 1444 1441 1439 1438 1437 1438 1438 1439 1440 1441
1509 1517 1521 1539 1539 1543 1535 1520 1509 1499 1496 1493 1492 1492 1491 1491 1491 1491 1491 1491 1491 1492 1491 1491 1490 1488 1486 1483 1481 1478 1476 1472 1469 1465 1461 1457 1453 1448 1444 1440 1436 1434 1432 1432 1432 1432 1434 1435 1436
1502 1509 1525 1536 1547 1552 1538 1527 1521 1503 1498 1493 1490 1489 1489 1489 1489 1489 1489 1489 1489 1489 1488 1488 1486 1484 1482 1480 1478 1475 1473 1470 1467 1463 1459 1455 1451 1446 1442 1437 1434 1430 1428 1427 1427 1428 1429 1431 1432
1508 1510 1518 1532 1539 1549 1551 1536 1501 1496 1492 1491 1489 1489 1490 1491 1490 1490 1489 1488 1487 1486 1485 1484 1482 1481 1479 1477 1474 1472 1470 1467 1465 1462 1458 1454 1450 1446 1441 1436 1432 1429 1426 1425 1424 1425 1426 1428 1430
1503 1507 1518 1533 1534 1535 1541 1530 1498 1494 1493 1492 1492 1493 1493 1493 1492 1490 1488 1486 1484 1483 1482 1480 1479 1477 1475 1473 1471 1469 1467 1465 1463 1460 1457 1454 1450 1446 1441 1437 1432 1429 1426 1424 1424 1424 1425 1427 1430